Погода в Рождествене

Россия / Ярославская область     57°22′11″N   40°24′11″E
темп.,
°C
ветер,
м/с
пор.,
м/с
влажн.,
%
обл.,
%
осадки,
мм/ч
давл.,
гПа
погр.,
м
20 апреля, вт
вт2000:00+2в5136264 0.0 1028505
03:00+1в5126656 0.0 1028410
06:000в512695 0.0 1027356
09:00+5вюв71053100 0.0 1027649
12:00+8вюв71145100 0.0 10251291
15:00+10вюв81144100 0.0 10231693
18:00+9вюв71148100 0.0 10211529
21:00+6вюв61260100 0.1 10201151
21 апреля, ср
ср2100:00+5в61373100 0.4 10171044
03:00+2в81593100 1.2 1014816
06:00+1в81897100 3.1 1009858
09:00+3вюв91893100 5.3 1005870
12:00+6вюв101892100 1.9 10021380
15:00+3ю91493100 4.0 1004956
18:00+3ююз61089100 0.1 1007941
21:00+3ююз4991100 0.2 1010585
22 апреля, чт
чт2200:00+3юз4893100 0.1 1011484
03:00+3ююз3896100 0.1 1013310
06:00+3ю4896100 0.0 1014261
09:00+5ю5887100 0.0 1015377
12:00+9ююз5664100 0.0 10161064
15:00+10ююз575995 0.1 10161525
18:00+9ю58705 0.1 1017794
21:00+6ю411865 0.1 1018282
23 апреля, пт
пт2300:00+4ююв411915 0.0 1018224
03:00+4ююв411918 0.0 1018237
06:00+5ююв513915 0.0 1018312
09:00+10ююв6107616 0.0 1018503
12:00+15ю686157 0.0 10171075
15:00+16ю685768 1.5 10161476
18:00+14ю596193 0.9 1016361
21:00+9ююв412835 1.0 1016268
24 апреля, сб
сб2400:00+8ююв412868 0.0 1015246
03:00+7юв512875 0.0 1014247
06:00+8юв61484100 0.0 1012387
09:00+12юв7137080 0.1 1011893
12:00+14юв9135641 0.3 10091907
15:00+12юв9126969 0.9 10071279
18:00+8юз6881100 0.8 1006945
21:00+2з51099100 7.1 1008389